CW0351 Weather Reports


time (UTC)temp
C
wind
direction
speed
KPH
gust
KPH
rain 1hr
cm
rain 24hr
cm
rain mn
cm
humidity
%
barometer
mb
20260505041558 15 0 0.0 9.7 0.00 0.00 0.00 53 1010.5
20260505040100 15 0 0.0 3.2 0.00 0.00 0.00 53 1010.4
20260505034553 15 0 0.0 0.0 0.00 0.00 0.00 53 1010.4
20260505033055 15 0 0.0 4.8 0.00 0.00 0.00 53 1010.4
20260505031601 15 0 0.0 0.0 0.00 0.00 0.00 53 1010.4
20260505030056 14 0 0.0 0.0 0.00 0.00 0.00 55 1010.3
20260505024607 14 0 0.0 0.0 0.00 0.00 0.00 56 1010.5
20260505023054 14 0 0.0 0.0 0.00 0.00 0.00 56 1010.7
20260505021609 15 0 0.0 0.0 0.00 0.00 0.00 54 1010.7
20260505020055 15 0 0.0 0.0 0.00 0.00 0.00 51 1010.7
20260505014555 15 0 0.0 0.0 0.00 0.00 0.00 51 1010.6
20260505013058 15 0 0.0 0.0 0.00 0.00 0.00 50 1010.5
20260505011558 16 0 0.0 0.0 0.00 0.00 0.00 48 1010.4
20260505010057 16 0 0.0 0.0 0.00 0.00 0.00 45 1010.2
20260505004557 17 0 0.0 0.0 0.00 0.00 0.00 43 1010.0
20260505003054 18 0 0.0 0.0 0.00 0.00 0.00 40 1010.0
20260505001557 18 0 0.0 0.0 0.00 0.00 0.00 39 1009.9
20260505000059 19 0 0.0 8.0 0.00 0.00 0.00 37 1009.7
20260504234555 19 0 0.0 14.5 0.00 0.00 0.00 37 1009.8
20260504233102 20 0 0.0 12.9 0.00 0.00 0.00 35 1009.6
20260504231556 20 200 4.8 20.9 0.00 0.00 0.00 33 1009.5
20260504230058 20 0 1.6 17.7 0.00 0.00 0.00 33 1009.5
20260504224554 20 0 0.0 16.1 0.00 0.00 0.00 35 1009.4
20260504223102 21 0 3.2 19.3 0.00 0.00 0.00 33 1009.4
20260504221606 21 0 3.2 19.3 0.00 0.00 0.00 33 1009.6
20260504220136 22 198 1.6 12.9 0.00 0.00 0.00 32 1009.7
20260504214558 22 0 1.6 22.5 0.00 0.00 0.00 34 1009.6
20260504213126 22 0 6.4 20.9 0.00 0.00 0.00 31 1009.6
20260504211558 22 211 0.0 20.9 0.00 0.00 0.00 32 1009.6
20260504210101 22 173 1.6 17.7 0.00 0.00 0.00 31 1009.6
20260504204603 22 250 1.6 14.5 0.00 0.00 0.00 30 1009.8
20260504203053 22 207 4.8 22.5 0.00 0.00 0.00 31 1009.9
20260504201554 22 259 9.7 24.1 0.00 0.00 0.00 32 1010.0
20260504200110 22 213 6.4 20.9 0.00 0.00 0.00 31 1010.1
20260504194549 22 273 3.2 24.1 0.00 0.00 0.00 31 1010.2
20260504193051 22 225 3.2 24.1 0.00 0.00 0.00 31 1010.2
20260504191559 22 128 0.0 16.1 0.00 0.00 0.00 31 1010.2
20260504190054 21 242 6.4 20.9 0.00 0.00 0.00 34 1010.4
20260504184600 21 225 3.2 22.5 0.00 0.00 0.00 29 1010.7
20260504183051 21 242 6.4 19.3 0.00 0.00 0.00 30 1011.0
20260504181553 21 0 3.2 20.9 0.00 0.00 0.00 35 1011.0
20260504180055 20 202 6.4 20.9 0.00 0.00 0.00 33 1011.4
20260504174556 21 0 6.4 19.3 0.00 0.00 0.00 34 1011.6
20260504173100 20 208 4.8 20.9 0.00 0.00 0.00 34 1011.8
20260504171556 20 268 3.2 24.1 0.00 0.00 0.00 37 1012.0
20260504160106 18 212 4.8 17.7 0.00 0.00 0.00 36 1013.0
20260504081552 4 0 0.0 0.0 0.00 0.00 0.00 75 1014.4
20260504044554 6 0 0.0 0.0 0.00 0.00 0.00 63 1014.3
20260504043058 6 0 0.0 0.0 0.00 0.00 0.00 62 1014.2